Hinckley, MN

6:44 PM CST on December 05, 2019 (GMT -0600)
Hinckley

Weather History for K04W - October, 2019

Change the Weather History Date:

Saturday, October 26, 2019

  Actual Average (WUND) Record (WUND)
Temperature  
Mean Temperature 44 °F -  
Max Temperature 55 °F - - (-1)
Min Temperature 32 °F - - (-1)
Degree Days  
Heating Degree Days 22    
Moisture  
Dew Point 31 °F    
Average Humidity 63    
Maximum Humidity 93    
Minimum Humidity 38    
Precipitation  
Precipitation 0.00 in - - ()
Sea Level Pressure  
Sea Level Pressure 29.80 in    
Wind  
Wind Speed 9 mph (South)    
Max Wind Speed 18 mph    
Max Gust Speed 25 mph    
Visibility 10 miles    
Events      
Averages and records for this station are not official NWS values.
T = Trace of Precipitation, MM = Missing Value Source: NWS Daily Summary

Daily Weather History Graph

Daily Weather History Graph

Search for Another Location

Airport or City:

Astronomy

Oct. 26, 2019 Rise Set
Actual Time 7:43 AM CDT 6:07 PM CDT
Civil Twilight 7:12 AM CDT 6:37 PM CDT
Nautical Twilight 6:37 AM CDT 7:12 PM CDT
Astronomical Twilight 6:02 AM CDT 7:47 PM CDT
Moon 5:29 AM CDT (10/26) 5:51 PM CDT (10/26)
Length of Visible Light 11h 25m
Length of Day
10h 23m
Waning Crescent, 3% of the Moon is Illuminated
Oct 26
Waning Crescent
Oct 27
New
Nov 4
First Quarter
Nov 12
Full
Nov 19
Last Quarter

Hourly Weather History & Observations

Time (CDT) Temp. Windchill Dew Point Humidity Pressure Visibility Wind Dir Wind Speed Gust Speed Precip Events Conditions
12:15 AM 41.0 °F 37.1 °F 32.0 °F 70% 29.97 in 10.0 mi South 5.8 mph - N/A   Clear
12:35 AM 41.0 °F 37.1 °F 32.0 °F 70% 29.96 in 10.0 mi South 5.8 mph - N/A   Clear
12:36 AM 41.0 °F 37.1 °F 32.0 °F 70% 29.96 in 10.0 mi South 5.8 mph - N/A   Clear
12:58 AM 41.0 °F 35.2 °F 32.0 °F 70% 29.95 in 10.0 mi South 9.2 mph - N/A   Clear
1:17 AM 41.0 °F 36.4 °F 32.0 °F 70% 29.95 in 10.0 mi South 6.9 mph - N/A   Clear
1:55 AM 39.2 °F 34.2 °F 32.0 °F 75% 29.94 in 10.0 mi South 6.9 mph - N/A   Clear
1:56 AM 39.2 °F 34.2 °F 32.0 °F 75% 29.94 in 10.0 mi South 6.9 mph - N/A   Clear
2:15 AM 37.4 °F 32.8 °F 32.0 °F 81% 29.94 in 10.0 mi South 5.8 mph - N/A   Clear
2:19 AM 37.4 °F 32.8 °F 32.0 °F 81% 29.94 in 10.0 mi South 5.8 mph - N/A   Clear
2:37 AM 37.4 °F 32.8 °F 32.0 °F 81% 29.93 in 10.0 mi South 5.8 mph - N/A   Clear
2:56 AM 37.4 °F 32.1 °F 32.0 °F 81% 29.93 in 10.0 mi South 6.9 mph - N/A   Clear
3:15 AM 37.4 °F 31.4 °F 32.0 °F 81% 29.93 in 10.0 mi South 8.1 mph - N/A   Clear
3:16 AM 37.4 °F 31.4 °F 32.0 °F 81% 29.93 in 10.0 mi South 8.1 mph - N/A   Clear
3:38 AM 37.4 °F 32.8 °F 32.0 °F 81% 29.92 in 10.0 mi South 5.8 mph - N/A   Clear
3:56 AM 37.4 °F 32.8 °F 32.0 °F 81% 29.91 in 10.0 mi South 5.8 mph - N/A   Clear
4:16 AM 37.4 °F 32.8 °F 32.0 °F 81% 29.91 in 10.0 mi South 5.8 mph - N/A   Clear
4:35 AM 37.4 °F 32.8 °F 32.0 °F 81% 29.91 in 10.0 mi SSE 5.8 mph - N/A   Clear
4:36 AM 37.4 °F 32.8 °F 32.0 °F 81% 29.91 in 10.0 mi South 5.8 mph - N/A   Clear
4:55 AM 37.4 °F 32.1 °F 32.0 °F 81% 29.90 in 10.0 mi South 6.9 mph - N/A   Clear
5:16 AM 37.4 °F 30.8 °F 32.0 °F 81% 29.90 in 10.0 mi South 9.2 mph - N/A   Clear
5:36 AM 37.4 °F 29.8 °F 32.0 °F 81% 29.89 in 10.0 mi South 11.5 mph - N/A   Clear
5:55 AM 37.4 °F 30.3 °F 32.0 °F 81% 29.89 in 10.0 mi South 10.4 mph - N/A   Clear
5:56 AM 37.4 °F 30.8 °F 32.0 °F 81% 29.89 in 10.0 mi South 9.2 mph - N/A   Clear
6:15 AM 37.4 °F 30.8 °F 32.0 °F 81% 29.88 in 10.0 mi South 9.2 mph - N/A   Clear
6:19 AM 37.4 °F 30.8 °F 32.0 °F 81% 29.88 in 10.0 mi South 9.2 mph - N/A   Clear
6:38 AM 37.4 °F 30.3 °F 32.0 °F 81% 29.87 in 10.0 mi SSE 10.4 mph 17.3 mph N/A   Clear
6:55 AM 37.4 °F 30.8 °F 32.0 °F 81% 29.86 in 10.0 mi SSE 9.2 mph - N/A   Clear
7:15 AM 37.4 °F 30.8 °F 32.0 °F 81% 29.85 in 10.0 mi South 9.2 mph - N/A   Clear
7:16 AM 37.4 °F 30.8 °F 32.0 °F 81% 29.85 in 10.0 mi South 9.2 mph - N/A   Clear
7:35 AM 37.4 °F 30.3 °F 32.0 °F 81% 29.85 in 10.0 mi South 10.4 mph - N/A   Clear
7:36 AM 37.4 °F 29.8 °F 32.0 °F 81% 29.85 in 10.0 mi South 11.5 mph 16.1 mph N/A   Clear
7:59 AM 37.4 °F 28.9 °F 32.0 °F 81% 29.84 in 10.0 mi South 13.8 mph 19.6 mph N/A   Clear
8:16 AM 39.2 °F 31.6 °F 32.0 °F 75% 29.84 in 10.0 mi South 12.7 mph 19.6 mph N/A   Clear
8:36 AM 41.0 °F 33.5 °F 32.0 °F 70% 29.84 in 10.0 mi South 13.8 mph 25.3 mph N/A   Clear
8:55 AM 41.0 °F 34.7 °F 32.0 °F 70% 29.84 in 10.0 mi South 10.4 mph 18.4 mph N/A   Clear
8:56 AM 41.0 °F 34.7 °F 32.0 °F 70% 29.84 in 10.0 mi South 10.4 mph 18.4 mph N/A   Clear
9:15 AM 42.8 °F 35.1 °F 32.0 °F 66% 29.84 in 10.0 mi South 16.1 mph 23.0 mph N/A   Clear
9:20 AM 42.8 °F 35.8 °F 32.0 °F 66% 29.84 in 10.0 mi South 13.8 mph 23.0 mph N/A   Clear
9:37 AM 42.8 °F 34.8 °F 32.0 °F 66% 29.84 in 10.0 mi South 17.3 mph 24.2 mph N/A   Clear
9:55 AM 44.6 °F 38.1 °F 32.0 °F 61% 29.84 in 10.0 mi South 13.8 mph 21.9 mph N/A   Clear
10:15 AM 46.4 °F 39.8 °F 32.0 °F 57% 29.84 in 10.0 mi South 16.1 mph 21.9 mph N/A   Clear
10:16 AM 46.4 °F 39.5 °F 32.0 °F 57% 29.84 in 10.0 mi South 17.3 mph 21.9 mph N/A   Clear
10:35 AM 46.4 °F 40.7 °F 32.0 °F 57% 29.83 in 10.0 mi South 12.7 mph - N/A   Clear
10:36 AM 46.4 °F 40.4 °F 32.0 °F 57% 29.83 in 10.0 mi South 13.8 mph - N/A   Clear
10:58 AM 48.2 °F - 32.0 °F 54% 29.82 in 10.0 mi South 17.3 mph 21.9 mph N/A   Clear
11:16 AM 50.0 °F - 32.0 °F 50% 29.81 in 10.0 mi South 12.7 mph - N/A   Clear
11:36 AM 50.0 °F - 32.0 °F 50% 29.80 in 10.0 mi South 18.4 mph 23.0 mph N/A   Clear
11:55 AM 51.8 °F - 32.0 °F 47% 29.80 in 10.0 mi South 16.1 mph 21.9 mph N/A   Clear
11:56 AM 51.8 °F - 32.0 °F 47% 29.79 in 10.0 mi South 15.0 mph 21.9 mph N/A   Clear
12:15 PM 53.6 °F - 32.0 °F 44% 29.78 in 10.0 mi South 17.3 mph 21.9 mph N/A   Clear
12:20 PM 51.8 °F - 32.0 °F 47% 29.78 in 10.0 mi South 16.1 mph 23.0 mph N/A   Clear
12:37 PM 53.6 °F - 32.0 °F 44% 29.78 in 10.0 mi South 16.1 mph 23.0 mph N/A   Clear
12:56 PM 53.6 °F - 32.0 °F 44% 29.77 in 10.0 mi South 16.1 mph 21.9 mph N/A   Clear
1:15 PM 53.6 °F - 30.2 °F 41% 29.77 in 10.0 mi South 15.0 mph 24.2 mph N/A   Clear
1:16 PM 53.6 °F - 30.2 °F 41% 29.77 in 10.0 mi South 16.1 mph 24.2 mph N/A   Clear
1:35 PM 53.6 °F - 30.2 °F 41% 29.76 in 10.0 mi South 16.1 mph 24.2 mph N/A   Clear
1:36 PM 53.6 °F - 32.0 °F 44% 29.76 in 10.0 mi SSE 16.1 mph 24.2 mph N/A   Clear
1:58 PM 55.4 °F - 32.0 °F 41% 29.75 in 10.0 mi South 13.8 mph 21.9 mph N/A   Clear
2:17 PM 55.4 °F - 32.0 °F 41% 29.76 in 10.0 mi SSE 13.8 mph 19.6 mph N/A   Clear
2:36 PM 55.4 °F - 32.0 °F 41% 29.75 in 10.0 mi SSE 18.4 mph - N/A   Clear
2:55 PM 55.4 °F - 32.0 °F 41% 29.75 in 10.0 mi SSE 16.1 mph 21.9 mph N/A   Clear
2:56 PM 55.4 °F - 32.0 °F 41% 29.75 in 10.0 mi South 13.8 mph 21.9 mph N/A   Clear
3:15 PM 55.4 °F - 32.0 °F 41% 29.74 in 10.0 mi South 15.0 mph 20.7 mph N/A   Clear
3:20 PM 55.4 °F - 30.2 °F 38% 29.74 in 10.0 mi South 16.1 mph 21.9 mph N/A   Clear
3:37 PM 55.4 °F - 32.0 °F 41% 29.73 in 10.0 mi South 11.5 mph - N/A   Clear
3:55 PM 55.4 °F - 32.0 °F 41% 29.72 in 10.0 mi SSE 11.5 mph 18.4 mph N/A   Clear
4:15 PM 53.6 °F - 30.2 °F 41% 29.71 in 10.0 mi SSE 9.2 mph - N/A   Clear
4:16 PM 53.6 °F - 30.2 °F 41% 29.71 in 10.0 mi SSE 10.4 mph - N/A   Clear
4:35 PM 53.6 °F - 32.0 °F 44% 29.71 in 10.0 mi SSE 8.1 mph - N/A   Clear
4:36 PM 53.6 °F - 32.0 °F 44% 29.71 in 10.0 mi SSE 9.2 mph - N/A   Clear
4:58 PM 53.6 °F - 32.0 °F 44% 29.71 in 10.0 mi SSE 9.2 mph - N/A   Clear
5:17 PM 53.6 °F - 30.2 °F 41% 29.72 in 10.0 mi SSE 8.1 mph - N/A   Clear
5:36 PM 51.8 °F - 30.2 °F 44% 29.71 in 10.0 mi SSE 6.9 mph - N/A   Clear
5:55 PM 50.0 °F - 30.2 °F 47% 29.71 in 10.0 mi SSE 5.8 mph - N/A   Clear
5:56 PM 50.0 °F - 30.2 °F 47% 29.71 in 10.0 mi SSE 5.8 mph - N/A   Clear
6:15 PM 50.0 °F - 30.2 °F 47% 29.71 in 10.0 mi SSE 8.1 mph - N/A   Clear
6:19 PM 50.0 °F - 30.2 °F 47% 29.71 in 10.0 mi SSE 6.9 mph 10.4 mph N/A   Clear
6:38 PM 50.0 °F - 30.2 °F 47% 29.71 in 10.0 mi SE 6.9 mph - N/A   Clear
6:55 PM 46.4 °F 43.5 °F 30.2 °F 53% 29.71 in 10.0 mi SE 5.8 mph - N/A   Clear
7:15 PM 46.4 °F 43.5 °F 30.2 °F 53% 29.71 in 10.0 mi SSE 5.8 mph - N/A   Clear
7:35 PM 46.4 °F 43.5 °F 30.2 °F 53% 29.72 in 10.0 mi SSE 5.8 mph - N/A   Clear
7:36 PM 46.4 °F 43.5 °F 30.2 °F 53% 29.71 in 10.0 mi SSE 5.8 mph - N/A   Clear
7:58 PM 44.6 °F 41.4 °F 30.2 °F 57% 29.72 in 10.0 mi South 5.8 mph - N/A   Clear
8:16 PM 44.6 °F 42.2 °F 30.2 °F 57% 29.72 in 10.0 mi South 4.6 mph - N/A   Clear
8:36 PM 44.6 °F - 30.2 °F 57% 29.72 in 10.0 mi Calm Calm - N/A   Clear
8:55 PM 42.8 °F 41.1 °F 30.2 °F 61% 29.72 in 10.0 mi SSE 3.5 mph - N/A   Clear
8:56 PM 42.8 °F 41.1 °F 30.2 °F 61% 29.72 in 10.0 mi SSE 3.5 mph - N/A   Clear
9:15 PM 42.8 °F - 30.2 °F 61% 29.72 in 10.0 mi Calm Calm - N/A   Clear
9:38 PM 41.0 °F - 30.2 °F 65% 29.71 in 10.0 mi Calm Calm - N/A   Clear
9:55 PM 37.4 °F - 30.2 °F 75% 29.71 in 10.0 mi Calm Calm - N/A   Clear
10:15 PM 35.6 °F - 32.0 °F 87% 29.71 in 10.0 mi Calm Calm - N/A   Clear
10:16 PM 35.6 °F - 32.0 °F 87% 29.71 in 10.0 mi Calm Calm - N/A   Clear
10:35 PM 33.8 °F - 32.0 °F 93% 29.71 in 10.0 mi Calm Calm - N/A   Clear
10:36 PM 33.8 °F - 32.0 °F 93% 29.71 in 10.0 mi Calm Calm - N/A   Clear
10:59 PM 37.4 °F - 30.2 °F 75% 29.71 in 10.0 mi Calm Calm - N/A   Clear
11:16 PM 35.6 °F - 30.2 °F 81% 29.71 in 10.0 mi Calm Calm - N/A   Clear
11:36 PM 33.8 °F - 30.2 °F 87% 29.71 in 10.0 mi Calm Calm - N/A   Clear
11:55 PM 32.0 °F - 30.2 °F 93% 29.71 in 10.0 mi Calm Calm - N/A   Clear
11:56 PM 32.0 °F - 30.2 °F 93% 29.71 in 10.0 mi Calm Calm - N/A   Clear